Location: Newark
(23.3970°S, 47.6010°W)
Time: 14:50:19
(UTC+00:00)

deb Explorer IX - Pass Details

Date: 27 February 2020
Orbit: 547 x 1100 km, 38.8° (Epoch: 04 April)

Event Time Altitude Azimuth Distance (km) Brightness Sun altitude
Rises 03:04:37 0° 235° (SW) 3,784 - -57.7°
Reaches altitude 10° 03:07:45 10° 222° (SW) 2,891 - -57.8°
Maximum altitude 03:13:39 27° 167° (SSE) 1,985 - -57.9°
Drops below altitude 10° 03:19:40 10° 112° (ESE) 2,956 - -58.0°
Sets 03:22:55 0° 100° (E) 3,885 - -58.0°
